When you browse on this site, cookies collect data to enhance your experience and personalize the content and advertising you see.
Visit our Privacy Policy to learn more. By continuing to use the site, you agree to this use of cookies and data.
  • In Lithuania
  • List of Countries
  • For 7 days
  • Water Temperature
  • Weather Map
  • Weather Widgets
  • user-avatar
    Login

    Hourly Weather Wieckowo

    Today, 19 August, Monday

    Time Temperature Precipitation Wind Pressure Humidity
    00:00 +20°C° 0.1 mm 4 mps 743 mmHg 75%
    01:00 +20°C° 0.1 mm 4 mps 743 mmHg 79%
    02:00 +20°C° 0 mm 3 mps 743 mmHg 82%
    03:00 +19°C° 0 mm 3 mps 744 mmHg 86%
    04:00 +19°C° 0 mm 2 mps 744 mmHg 90%
    05:00 +20°C° 0 mm 2 mps 744 mmHg 87%
    06:00 +21°C° 0 mm 2 mps 745 mmHg 85%
    07:00 +23°C° 0 mm 2 mps 745 mmHg 82%
    08:00 +24°C° 0 mm 3 mps 746 mmHg 75%
    09:00 +25°C° 0 mm 4 mps 746 mmHg 69%
    10:00 +27°C° 0 mm 4 mps 747 mmHg 62%
    11:00 +27°C° 0 mm 4 mps 747 mmHg 61%
    12:00 +27°C° 0 mm 4 mps 747 mmHg 59%
    13:00 +28°C° 0 mm 3 mps 747 mmHg 57%
    14:00 +27°C° 0.4 mm 3 mps 747 mmHg 62%
    15:00 +26°C° 0.4 mm 3 mps 747 mmHg 67%
    16:00 +25°C° 0.4 mm 3 mps 748 mmHg 71%
    17:00 +22°C° 0.1 mm 3 mps 748 mmHg 75%
    18:00 +21°C° 0.1 mm 2 mps 748 mmHg 78%
    19:00 +20°C° 0.1 mm 2 mps 748 mmHg 82%
    20:00 +19°C° 0 mm 2 mps 749 mmHg 84%
    21:00 +18°C° 0 mm 2 mps 749 mmHg 87%
    22:00 +17°C° 0 mm 2 mps 749 mmHg 89%
    23:00 +18°C° 0 mm 1 mps 750 mmHg 90%

    Tomorrow, 20 August, Tuesday

    Time Temperature Precipitation Wind Pressure Humidity
    00:00 +16°C° 0 mm 1 mps 750 mmHg 92%
    01:00 +16°C° 0 mm 1 mps 750 mmHg 93%
    02:00 +16°C° 0 mm 1 mps 751 mmHg 93%
    03:00 +16°C° 0 mm 1 mps 751 mmHg 92%
    04:00 +16°C° 0 mm 1 mps 751 mmHg 92%
    05:00 +18°C° 0 mm 1 mps 751 mmHg 87%
    06:00 +19°C° 0 mm 1 mps 752 mmHg 82%
    07:00 +20°C° 0 mm 1 mps 752 mmHg 77%
    08:00 +21°C° 0 mm 1 mps 752 mmHg 68%
    09:00 +23°C° 0 mm 2 mps 752 mmHg 59%
    10:00 +24°C° 0 mm 2 mps 753 mmHg 50%
    11:00 +25°C° 0 mm 2 mps 753 mmHg 47%
    12:00 +26°C° 0 mm 2 mps 753 mmHg 45%
    13:00 +26°C° 0 mm 2 mps 753 mmHg 42%
    14:00 +26°C° 0 mm 1 mps 752 mmHg 42%
    15:00 +26°C° 0 mm 1 mps 752 mmHg 42%
    16:00 +26°C° 0 mm 1 mps 752 mmHg 42%
    17:00 +24°C° 0 mm 1 mps 752 mmHg 48%
    18:00 +23°C° 0 mm 1 mps 752 mmHg 53%
    19:00 +21°C° 0 mm 1 mps 752 mmHg 58%
    20:00 +21°C° 0 mm 1 mps 752 mmHg 60%
    21:00 +20°C° 0 mm 1 mps 752 mmHg 63%
    22:00 +19°C° 0 mm 2 mps 752 mmHg 65%
    23:00 +19°C° 0 mm 2 mps 752 mmHg 66%

    Day after tomorrow, 21 August, Wednesday

    Time Temperature Precipitation Wind Pressure Humidity
    00:00 +18°C° 0 mm 2 mps 752 mmHg 67%
    01:00 +18°C° 0 mm 2 mps 752 mmHg 69%
    02:00 +18°C° 0 mm 2 mps 752 mmHg 71%
    03:00 +19°C° 0 mm 1 mps 752 mmHg 73%
    04:00 +19°C° 0 mm 1 mps 752 mmHg 75%
    05:00 +17°C° 0.9 mm 2 mps 752 mmHg 80%
    06:00 +17°C° 0.9 mm 3 mps 752 mmHg 85%
    07:00 +15°C° 0.9 mm 4 mps 752 mmHg 91%
    08:00 +15°C° 1.3 mm 5 mps 753 mmHg 92%
    09:00 +15°C° 1.3 mm 5 mps 753 mmHg 93%
    10:00 +15°C° 1.3 mm 5 mps 753 mmHg 93%
    11:00 +15°C° 0.2 mm 5 mps 753 mmHg 93%
    12:00 +15°C° 0.2 mm 5 mps 753 mmHg 93%
    13:00 +15°C° 0.2 mm 4 mps 753 mmHg 92%
    14:00 +15°C° 0 mm 4 mps 753 mmHg 91%
    15:00 +16°C° 0 mm 3 mps 754 mmHg 90%
    16:00 +16°C° 0 mm 3 mps 754 mmHg 89%
    17:00 +16°C° 0 mm 3 mps 754 mmHg 91%
    18:00 +15°C° 0 mm 2 mps 754 mmHg 93%
    19:00 +15°C° 0 mm 2 mps 754 mmHg 95%
    20:00 +14°C° 0 mm 2 mps 754 mmHg 95%
    21:00 +14°C° 0 mm 2 mps 755 mmHg 95%
    22:00 +14°C° 0 mm 2 mps 755 mmHg 94%
    23:00 +14°C° 0 mm 2 mps 755 mmHg 94%

    22 August, Thursday

    Time Temperature Precipitation Wind Pressure Humidity
    00:00 +14°C° 0 mm 2 mps 755 mmHg 94%
    01:00 +14°C° 0 mm 2 mps 755 mmHg 94%
    02:00 +14°C° 0 mm 2 mps 755 mmHg 94%
    03:00 +14°C° 0 mm 2 mps 755 mmHg 95%
    04:00 +14°C° 0 mm 2 mps 755 mmHg 95%
    05:00 +14°C° 0 mm 2 mps 755 mmHg 92%
    06:00 +15°C° 0 mm 2 mps 755 mmHg 89%
    07:00 +16°C° 0 mm 2 mps 755 mmHg 86%
    08:00 +17°C° 0 mm 2 mps 755 mmHg 79%
    09:00 +19°C° 0 mm 2 mps 755 mmHg 71%
    10:00 +20°C° 0 mm 2 mps 755 mmHg 64%
    11:00 +21°C° 0 mm 2 mps 755 mmHg 59%
    12:00 +23°C° 0 mm 2 mps 755 mmHg 54%
    13:00 +24°C° 0 mm 2 mps 755 mmHg 49%
    14:00 +24°C° 0 mm 2 mps 754 mmHg 49%
    15:00 +24°C° 0 mm 2 mps 754 mmHg 49%
    16:00 +24°C° 0 mm 2 mps 754 mmHg 49%
    17:00 +21°C° 0 mm 2 mps 754 mmHg 56%
    18:00 +19°C° 0 mm 2 mps 754 mmHg 63%
    19:00 +17°C° 0 mm 2 mps 754 mmHg 70%
    20:00 +17°C° 0 mm 2 mps 755 mmHg 73%
    21:00 +16°C° 0 mm 2 mps 755 mmHg 76%
    22:00 +15°C° 0 mm 2 mps 755 mmHg 79%
    23:00 +15°C° 0 mm 2 mps 755 mmHg 80%

    23 August, Friday

    Time Temperature Precipitation Wind Pressure Humidity
    00:00 +14°C° 0 mm 2 mps 755 mmHg 81%
    01:00 +14°C° 0 mm 1 mps 755 mmHg 82%
    02:00 +14°C° 0 mm 1 mps 755 mmHg 82%
    03:00 +13°C° 0 mm 1 mps 755 mmHg 83%
    04:00 +13°C° 0 mm 1 mps 755 mmHg 83%
    05:00 +15°C° 0 mm 1 mps 756 mmHg 78%
    06:00 +16°C° 0 mm 1 mps 756 mmHg 73%
    07:00 +18°C° 0 mm 1 mps 756 mmHg 68%
    08:00 +20°C° 0 mm 1 mps 757 mmHg 62%
    09:00 +20°C° 0 mm 2 mps 757 mmHg 57%
    10:00 +23°C° 0 mm 2 mps 757 mmHg 51%
    11:00 +24°C° 0 mm 2 mps 757 mmHg 49%
    12:00 +24°C° 0 mm 2 mps 757 mmHg 47%
    13:00 +25°C° 0 mm 2 mps 757 mmHg 46%
    14:00 +25°C° 0 mm 2 mps 756 mmHg 47%
    15:00 +25°C° 0 mm 2 mps 756 mmHg 48%
    16:00 +25°C° 0 mm 2 mps 756 mmHg 49%
    17:00 +23°C° 0 mm 2 mps 756 mmHg 56%
    18:00 +20°C° 0 mm 2 mps 756 mmHg 63%
    19:00 +18°C° 0 mm 2 mps 756 mmHg 71%
    20:00 +17°C° 0 mm 2 mps 756 mmHg 73%
    21:00 +16°C° 0 mm 2 mps 756 mmHg 75%
    22:00 +15°C° 0 mm 2 mps 756 mmHg 77%
    23:00 +15°C° 0 mm 2 mps 756 mmHg 78%

    24 August, Saturday

    Time Temperature Precipitation Wind Pressure Humidity
    00:00 +14°C° 0 mm 2 mps 756 mmHg 79%
    01:00 +14°C° 0 mm 2 mps 756 mmHg 79%
    02:00 +13°C° 0 mm 2 mps 756 mmHg 80%
    03:00 +13°C° 0 mm 2 mps 756 mmHg 80%
    04:00 +12°C° 0 mm 2 mps 756 mmHg 81%
    05:00 +13°C° 0 mm 3 mps 756 mmHg 78%
    06:00 +14°C° 0 mm 3 mps 756 mmHg 76%
    07:00 +16°C° 0 mm 3 mps 756 mmHg 73%
    08:00 +18°C° 0 mm 3 mps 756 mmHg 67%
    09:00 +20°C° 0 mm 4 mps 756 mmHg 62%
    10:00 +22°C° 0 mm 4 mps 756 mmHg 56%
    11:00 +23°C° 0 mm 4 mps 755 mmHg 55%
    12:00 +25°C° 0 mm 5 mps 755 mmHg 53%
    13:00 +26°C° 0 mm 5 mps 755 mmHg 51%
    14:00 +25°C° 0 mm 5 mps 754 mmHg 53%
    15:00 +25°C° 0 mm 5 mps 754 mmHg 54%
    16:00 +25°C° 0 mm 5 mps 753 mmHg 55%
    17:00 +23°C° 0 mm 5 mps 753 mmHg 59%
    18:00 +21°C° 0 mm 4 mps 753 mmHg 63%
    19:00 +19°C° 0 mm 4 mps 753 mmHg 67%
    20:00 +19°C° 0 mm 4 mps 753 mmHg 69%
    21:00 +18°C° 0 mm 4 mps 753 mmHg 70%
    22:00 +18°C° 0 mm 4 mps 753 mmHg 71%
    23:00 +17°C° 0 mm 4 mps 752 mmHg 73%
    Show more